Regional Weather Roundup
Issued by NWS

Home | Current Version | Previous Version | Graphics & Text | Print | Product List | Glossary On
Versions: 1 2 3 4 5 6 7 8 9 10 11 12 13 14 15 16 17 18 19 20 21 22 23 24 25 26 27 28
000
ASUS45 KTFX 230410
RWRMT
MONTANA REGIONAL WEATHER ROUNDUP
NATIONAL WEATHER SERVICE GREAT FALLS MT
1000 PM MDT THU JUN 22 2017

NOTE: "FAIR" INDICATES FEW OR NO CLOUDS BELOW 12000 FEET WITH NO
SIGNIFICANT WEATHER AND/OR OBSTRUCTIONS TO VISIBILITY.

MTZ001>007-043-230500-
WEST OF THE DIVIDE

CITY           SKY/WX    TMP DP  RH WIND       PRES   REMARKS
KALISPELL      CLEAR     56  42  59 SW3       30.18R
MISSOULA       CLEAR     58  37  45 W7        30.20R
BUTTE          CLEAR     55  29  36 N9        30.27R
MULLAN PASS    CLEAR     48  28  46 NW5       30.30S
ANACONDA         N/A     54  28  37 W6        30.24R
DEER LODGE       N/A     52  34  50 N6        30.27R
EUREKA           N/A     59  37  44 MISG      30.17S
$$

MTZ008-052>055-230500-
SOUTHWEST MONTANA

CITY           SKY/WX    TMP DP  RH WIND       PRES   REMARKS
BOZEMAN        CLEAR     50  35  56 NW6       30.25R
DILLON         CLEAR     49  33  54 E10       30.24R
W YELLOWSTONE  CLEAR     52  25  35 N13G24    30.27R
ENNIS          CLEAR     52  28  40 N10G17    30.29R
THREE FORKS      N/A     56  32  40 MISG      30.22R
$$

MTZ009-010-012-014-046-048-049-054-230500-
EAST SLOPES AND CENTRAL MONTANA

CITY           SKY/WX    TMP DP  RH WIND       PRES   REMARKS
CUT BANK       CLEAR     48  38  68 NE7       30.26R
GREAT FALLS    CLEAR     50  37  61 S3        30.27R
MALMSTROM AFB  CLEAR     49  39  69 S6        30.27R
HELENA         CLEAR     57  36  45 CALM      30.24R
CHOTEAU          N/A     52  37  58 E5        30.29R
$$

MTZ011-013-016-021-045-047-050-051-230500-
NORTH CENTRAL MONTANA

CITY           SKY/WX    TMP DP  RH WIND       PRES   REMARKS
HAVRE          CLOUDY    51  36  56 N5        30.23R
LEWISTOWN      PTCLDY    45  36  70 W9        30.26R
N BAR RANCH      N/A     48  37  66 NW14G20   30.25R
CHINOOK          N/A     52  37  58 W6        30.22R
FORT BENTON      N/A     54  36  50 CALM      30.27R
$$

MTZ017>020-022>027-061-062-230500-
NORTHEAST MONTANA

CITY           SKY/WX    TMP DP  RH WIND       PRES   REMARKS
GLASGOW        CLOUDY    55  44  66 NW15      30.13R
JORDAN           N/A     55  40  56 NW16G28   30.16R
SIDNEY         CLOUDY    56  46  69 NW26G35   30.06R
WOLF POINT     CLOUDY    56  45  66 NW17      30.11R
MALTA          CLEAR     54  41  62 NW8       30.17R
PLENTYWOOD       N/A     52  48  87 NW20G28   30.02R
POPLAR           N/A     54  45  71 NW21G29   30.09R
$$

MTZ028>42-056>058-230500-
SOUTHCENTRAL AND SOUTHEAST MONTANA

CITY           SKY/WX    TMP DP  RH WIND       PRES   REMARKS
BAKER          PTCLDY    53  42  66 NW23G32   30.10R
BILLINGS       CLOUDY    56  34  43 NE8       30.25R
LIVINGSTON     PTCLDY    53  35  50 E10       30.26R
MILES CITY     PTCLDY    56  40  55 N20G30    30.15R
BIG TIMBER     CLEAR     50  34  53 E7        30.31R
FORSYTH          N/A     54  39  58 W3        30.19R
$$

REGIONAL REPORTS...DAKOTAS

CITY           SKY/WX    TMP DP  RH WIND       PRES   REMARKS
WILLISTON      CLOUDY    56  49  77 NW23G32   30.01R
MINOT          CLOUDY    60  52  74 W25G35    29.84R
DICKINSON      MOCLDY    54  46  74 NW25G39   29.99R
BEACH          CLOUDY    54  45  71 NW29G37   30.09R
CROSBY         CLOUDY    52  50  93 NW25G35   29.97R
TIOGA          CLOUDY    54  54 100 NW23G35   29.97R
WATFORD CITY   CLOUDY    54  52  94 NW18G28   30.00R
BISMARCK       PTCLDY    62  45  53 NW17G25   29.90R
GRAND FORKS    PTCLDY    63  46  54 W23G31    29.70R
FARGO          CLEAR     62  40  44 W9        29.73R
BUFFALO SD       N/A     57  40  52 NW30G38   30.02R
RAPID CITY     PTCLDY    64  34  32 N17       30.04R
$$

REGIONAL REPORTS...WYOMING/IDAHO/WASHINGTON

CITY           SKY/WX    TMP DP  RH WIND       PRES   REMARKS
GILLETTE       CLOUDY    60  28  29 N10       30.14R
SHERIDAN       CLOUDY    59  29  31 N18G24    30.22R
BUFFALO WY     CLOUDY    58  28  32 N22G37    30.22R
CODY           PTCLDY    56  31  38 N22G28    30.26R
YELLOWSTONE LA   N/A     47  24  40 MISG      30.31R
IDAHO FALLS    CLEAR     61  42  49 N10       30.11R
SALMON         CLEAR     59  28  31 NE7       30.17R
BOISE          CLEAR     73  30  20 N10       30.07S
SPOKANE        PTCLDY    71  28  20 N3        30.20R
$$

REGIONAL REPORTS...ALBERTA

CITY           SKY/WX    TMP DP  RH WIND       PRES   REMARKS
EDMONTON       CLEAR     52  39  62 NW3       30.19R
CALGARY        MOCLDY    55  34  44 NE8       30.25R
LETHBRIDGE     PTCLDY    54  37  54 E2        30.25R
MEDICINE HAT   CLEAR     52  37  58 NW7       30.22R
WATERTON GATE    N/A     45  39  81 N3          N/A
CARDSTON         N/A     50  39  66 NE2         N/A
MILK RIVER       N/A     46  41  81 N3          N/A
ONEFOUR          N/A     48  39  71 NW7         N/A
$$

REGIONAL REPORTS...SASKATCHEWAN

CITY           SKY/WX    TMP DP  RH WIND       PRES   REMARKS
SWIFT CURRENT  CLOUDY    48  41  76 NW15      30.12R
REGINA         MOCLDY    54  43  66 NW21G28   30.00R
SASKATOON      MOCLDY    52  39  62 NW13      30.07R
VAL MARIE        N/A     45  41  87 NW8         N/A
ROCKGLEN         N/A     46  43  87 NW10        N/A
ASSINIBOIA       N/A     52  43  71 NW6         N/A
$$




USA.gov is the U.S. government's official web portal to all federal, state and local government web resources and services.